Data supplied by UK-AIR on 20/5/2021
All Data GMT hour ending 
Status: R =Ratified P=Provisional,P*=As supplied
,,Lerwick,,,,,,,,,,,,,,,,,,,,,,,
Date,time,"Ozone",status,unit
 
01-01-2020,01:00,79.69495,R,ugm-3
01-01-2020,02:00,76.83445,R,ugm-3
01-01-2020,03:00,76.63488,R,ugm-3
01-01-2020,04:00,76.88434,R,ugm-3
01-01-2020,05:00,74.73897,R,ugm-3
01-01-2020,06:00,71.59574,R,ugm-3
01-01-2020,07:00,71.19660,R,ugm-3
01-01-2020,08:00,70.29853,R,ugm-3
01-01-2020,09:00,69.15101,R,ugm-3
01-01-2020,10:00,67.20520,R,ugm-3
01-01-2020,11:00,65.90799,R,ugm-3
01-01-2020,12:00,64.01208,R,ugm-3
01-01-2020,13:00,64.31143,R,ugm-3
01-01-2020,14:00,64.41122,R,ugm-3
01-01-2020,15:00,64.76047,R,ugm-3
01-01-2020,16:00,64.61079,R,ugm-3
01-01-2020,17:00,66.60649,R,ugm-3
01-01-2020,18:00,68.10326,R,ugm-3
01-01-2020,19:00,61.86670,R,ugm-3
01-01-2020,20:00,60.12046,R,ugm-3
01-01-2020,21:00,58.97294,R,ugm-3
01-01-2020,22:00,57.72562,R,ugm-3
01-01-2020,23:00,57.52605,R,ugm-3
01-01-2020,24:00,58.52390,R,ugm-3
02-01-2020,01:00,59.33881,R,ugm-3
02-01-2020,02:00,60.20362,R,ugm-3
02-01-2020,03:00,62.76477,R,ugm-3
02-01-2020,04:00,64.81036,R,ugm-3
02-01-2020,05:00,63.71272,R,ugm-3
02-01-2020,06:00,60.02068,R,ugm-3
02-01-2020,07:00,59.32218,R,ugm-3
02-01-2020,08:00,57.97509,R,ugm-3
02-01-2020,09:00,60.36993,R,ugm-3
02-01-2020,10:00,60.81896,R,ugm-3
02-01-2020,11:00,59.57165,R,ugm-3
02-01-2020,12:00,61.56735,R,ugm-3
02-01-2020,13:00,65.10971,R,ugm-3
02-01-2020,14:00,67.05552,R,ugm-3
02-01-2020,15:00,67.85380,R,ugm-3
02-01-2020,16:00,68.00348,R,ugm-3
02-01-2020,17:00,68.80176,R,ugm-3
02-01-2020,18:00,70.24864,R,ugm-3
02-01-2020,19:00,79.87789,R,ugm-3
02-01-2020,20:00,88.80865,R,ugm-3
02-01-2020,21:00,90.70457,R,ugm-3
02-01-2020,22:00,89.40736,R,ugm-3
02-01-2020,23:00,88.90844,R,ugm-3
02-01-2020,24:00,90.25553,R,ugm-3
03-01-2020,01:00,88.54256,R,ugm-3
03-01-2020,02:00,86.54686,R,ugm-3
03-01-2020,03:00,86.56349,R,ugm-3
03-01-2020,04:00,87.16220,R,ugm-3
03-01-2020,05:00,86.91274,R,ugm-3
03-01-2020,06:00,86.36392,R,ugm-3
03-01-2020,07:00,85.61553,R,ugm-3
03-01-2020,08:00,85.41596,R,ugm-3
03-01-2020,09:00,84.81725,R,ugm-3
03-01-2020,10:00,84.06886,R,ugm-3
03-01-2020,11:00,84.11876,R,ugm-3
03-01-2020,12:00,83.76951,R,ugm-3
03-01-2020,13:00,83.76951,R,ugm-3
03-01-2020,14:00,83.52005,R,ugm-3
03-01-2020,15:00,83.61983,R,ugm-3
03-01-2020,16:00,82.77166,R,ugm-3
03-01-2020,17:00,82.52220,R,ugm-3
03-01-2020,18:00,83.12091,R,ugm-3
03-01-2020,19:00,83.81940,R,ugm-3
03-01-2020,20:00,83.81940,R,ugm-3
03-01-2020,21:00,84.36822,R,ugm-3
03-01-2020,22:00,83.81940,R,ugm-3
03-01-2020,23:00,84.01897,R,ugm-3
03-01-2020,24:00,83.91919,R,ugm-3
04-01-2020,01:00,85.01682,R,ugm-3
04-01-2020,02:00,89.20779,R,ugm-3
04-01-2020,03:00,91.55274,R,ugm-3
04-01-2020,04:00,91.05381,R,ugm-3
04-01-2020,05:00,85.61553,R,ugm-3
04-01-2020,06:00,78.63058,R,ugm-3
04-01-2020,07:00,74.19015,R,ugm-3
04-01-2020,08:00,74.33983,R,ugm-3
04-01-2020,09:00,73.59144,R,ugm-3
04-01-2020,10:00,68.25294,R,ugm-3
04-01-2020,11:00,60.96864,R,ugm-3
04-01-2020,12:00,61.21810,R,ugm-3
04-01-2020,13:00,59.02283,R,ugm-3
04-01-2020,14:00,41.66024,R,ugm-3
04-01-2020,15:00,60.66928,R,ugm-3
04-01-2020,16:00,60.76907,R,ugm-3
04-01-2020,17:00,68.95144,R,ugm-3
04-01-2020,18:00,75.83660,R,ugm-3
04-01-2020,19:00,81.12521,R,ugm-3
04-01-2020,20:00,86.46370,R,ugm-3
04-01-2020,21:00,84.11876,R,ugm-3
04-01-2020,22:00,77.88219,R,ugm-3
04-01-2020,23:00,77.03402,R,ugm-3
04-01-2020,24:00,79.97768,R,ugm-3
05-01-2020,01:00,80.95890,R,ugm-3
05-01-2020,02:00,81.69065,R,ugm-3
05-01-2020,03:00,81.72392,R,ugm-3
05-01-2020,04:00,84.11876,R,ugm-3
05-01-2020,05:00,92.30113,R,ugm-3
05-01-2020,06:00,89.95618,R,ugm-3
05-01-2020,07:00,87.86069,R,ugm-3
05-01-2020,08:00,87.71102,R,ugm-3
05-01-2020,09:00,88.25983,R,ugm-3
05-01-2020,10:00,88.95833,R,ugm-3
05-01-2020,11:00,88.85854,R,ugm-3
05-01-2020,12:00,87.56134,R,ugm-3
05-01-2020,13:00,85.46585,R,ugm-3
05-01-2020,14:00,83.76951,R,ugm-3
05-01-2020,15:00,82.52220,R,ugm-3
05-01-2020,16:00,81.82370,R,ugm-3
05-01-2020,17:00,77.78241,R,ugm-3
05-01-2020,18:00,74.63918,R,ugm-3
05-01-2020,19:00,73.59144,R,ugm-3
05-01-2020,20:00,73.99058,R,ugm-3
05-01-2020,21:00,73.79101,R,ugm-3
05-01-2020,22:00,73.39187,R,ugm-3
05-01-2020,23:00,73.39187,R,ugm-3
05-01-2020,24:00,71.14671,R,ugm-3
06-01-2020,01:00,69.91602,R,ugm-3
06-01-2020,02:00,68.18642,R,ugm-3
06-01-2020,03:00,66.95574,R,ugm-3
06-01-2020,04:00,62.66498,R,ugm-3
06-01-2020,05:00,61.11831,R,ugm-3
06-01-2020,06:00,59.22240,R,ugm-3
06-01-2020,07:00,63.21380,R,ugm-3
06-01-2020,08:00,65.80821,R,ugm-3
06-01-2020,09:00,70.94714,R,ugm-3
06-01-2020,10:00,76.28563,R,ugm-3
06-01-2020,11:00,77.33338,R,ugm-3
06-01-2020,12:00,78.38112,R,ugm-3
06-01-2020,13:00,77.58284,R,ugm-3
06-01-2020,14:00,76.58499,R,ugm-3
06-01-2020,15:00,74.93854,R,ugm-3
06-01-2020,16:00,75.48735,R,ugm-3
06-01-2020,17:00,77.48305,R,ugm-3
06-01-2020,18:00,76.53510,R,ugm-3
06-01-2020,19:00,76.03617,R,ugm-3
06-01-2020,20:00,76.68477,R,ugm-3
06-01-2020,21:00,77.23359,R,ugm-3
06-01-2020,22:00,78.68047,R,ugm-3
06-01-2020,23:00,82.67187,R,ugm-3
06-01-2020,24:00,83.07101,R,ugm-3
07-01-2020,01:00,83.81940,R,ugm-3
07-01-2020,02:00,81.29151,R,ugm-3
07-01-2020,03:00,77.93209,R,ugm-3
07-01-2020,04:00,73.49165,R,ugm-3
07-01-2020,05:00,73.04262,R,ugm-3
07-01-2020,06:00,75.03832,R,ugm-3
07-01-2020,07:00,77.08391,R,ugm-3
07-01-2020,08:00,77.63273,R,ugm-3
07-01-2020,09:00,79.37897,R,ugm-3
07-01-2020,10:00,75.68692,R,ugm-3
07-01-2020,11:00,71.69552,R,ugm-3
07-01-2020,12:00,70.29853,R,ugm-3
07-01-2020,13:00,68.70197,R,ugm-3
07-01-2020,14:00,66.35703,R,ugm-3
07-01-2020,15:00,64.51100,R,ugm-3
07-01-2020,16:00,63.86240,R,ugm-3
07-01-2020,17:00,64.41122,R,ugm-3
07-01-2020,18:00,78.43101,R,ugm-3
07-01-2020,19:00,80.72607,R,ugm-3
07-01-2020,20:00,79.92779,R,ugm-3
07-01-2020,21:00,78.88004,R,ugm-3
07-01-2020,22:00,78.63058,R,ugm-3
07-01-2020,23:00,84.86714,R,ugm-3
07-01-2020,24:00,89.20779,R,ugm-3
08-01-2020,01:00,87.87732,R,ugm-3
08-01-2020,02:00,87.87732,R,ugm-3
08-01-2020,03:00,87.21209,R,ugm-3
08-01-2020,04:00,84.81725,R,ugm-3
08-01-2020,05:00,84.31833,R,ugm-3
08-01-2020,06:00,83.27058,R,ugm-3
08-01-2020,07:00,82.12306,R,ugm-3
08-01-2020,08:00,81.87359,R,ugm-3
08-01-2020,09:00,81.22499,R,ugm-3
08-01-2020,10:00,82.92134,R,ugm-3
08-01-2020,11:00,83.22069,R,ugm-3
08-01-2020,12:00,82.57209,R,ugm-3
08-01-2020,13:00,82.22284,R,ugm-3
08-01-2020,14:00,83.52005,R,ugm-3
08-01-2020,15:00,81.52435,R,ugm-3
08-01-2020,16:00,82.12306,R,ugm-3
08-01-2020,17:00,84.41811,R,ugm-3
08-01-2020,18:00,85.71532,R,ugm-3
08-01-2020,19:00,85.01682,R,ugm-3
08-01-2020,20:00,83.66972,R,ugm-3
08-01-2020,21:00,83.52005,R,ugm-3
08-01-2020,22:00,81.52435,R,ugm-3
08-01-2020,23:00,81.27488,R,ugm-3
08-01-2020,24:00,81.17510,R,ugm-3
09-01-2020,01:00,80.16062,R,ugm-3
09-01-2020,02:00,78.96320,R,ugm-3
09-01-2020,03:00,76.23574,R,ugm-3
09-01-2020,04:00,80.42671,R,ugm-3
09-01-2020,05:00,79.57854,R,ugm-3
09-01-2020,06:00,82.02327,R,ugm-3
09-01-2020,07:00,79.42886,R,ugm-3
09-01-2020,08:00,75.98628,R,ugm-3
09-01-2020,09:00,71.74542,R,ugm-3
09-01-2020,10:00,74.09036,R,ugm-3
09-01-2020,11:00,73.24219,R,ugm-3
09-01-2020,12:00,69.94929,R,ugm-3
09-01-2020,13:00,68.70197,R,ugm-3
09-01-2020,14:00,61.86670,R,ugm-3
09-01-2020,15:00,69.15101,R,ugm-3
09-01-2020,16:00,63.41337,R,ugm-3
09-01-2020,17:00,66.85595,R,ugm-3
09-01-2020,18:00,68.15316,R,ugm-3
09-01-2020,19:00,71.89509,R,ugm-3
09-01-2020,20:00,73.89079,R,ugm-3
09-01-2020,21:00,75.98628,R,ugm-3
09-01-2020,22:00,73.29208,R,ugm-3
09-01-2020,23:00,74.58929,R,ugm-3
09-01-2020,24:00,76.83445,R,ugm-3
10-01-2020,01:00,77.23359,R,ugm-3
10-01-2020,02:00,78.29796,R,ugm-3
10-01-2020,03:00,77.63273,R,ugm-3
10-01-2020,04:00,71.54585,R,ugm-3
10-01-2020,05:00,76.33553,R,ugm-3
10-01-2020,06:00,74.33983,R,ugm-3
10-01-2020,07:00,72.79316,R,ugm-3
10-01-2020,08:00,73.64133,R,ugm-3
10-01-2020,09:00,72.99273,R,ugm-3
10-01-2020,10:00,75.98628,R,ugm-3
10-01-2020,11:00,76.08606,R,ugm-3
10-01-2020,12:00,73.29208,R,ugm-3
10-01-2020,13:00,78.48090,R,ugm-3
10-01-2020,14:00,78.38112,R,ugm-3
10-01-2020,15:00,76.08606,R,ugm-3
10-01-2020,16:00,80.02757,R,ugm-3
10-01-2020,17:00,80.72607,R,ugm-3
10-01-2020,18:00,80.22714,R,ugm-3
10-01-2020,19:00,76.13596,R,ugm-3
10-01-2020,20:00,77.33338,R,ugm-3
10-01-2020,21:00,75.23789,R,ugm-3
10-01-2020,22:00,72.34413,R,ugm-3
10-01-2020,23:00,72.89294,R,ugm-3
10-01-2020,24:00,72.79316,R,ugm-3
11-01-2020,01:00,72.37739,R,ugm-3
11-01-2020,02:00,72.24434,R,ugm-3
11-01-2020,03:00,70.94714,R,ugm-3
11-01-2020,04:00,69.84950,R,ugm-3
11-01-2020,05:00,69.40047,R,ugm-3
11-01-2020,06:00,71.99488,R,ugm-3
11-01-2020,07:00,76.03617,R,ugm-3
11-01-2020,08:00,80.62628,R,ugm-3
11-01-2020,09:00,87.56134,R,ugm-3
11-01-2020,10:00,84.46800,R,ugm-3
11-01-2020,11:00,81.52435,R,ugm-3
11-01-2020,12:00,78.63058,R,ugm-3
11-01-2020,13:00,78.33123,R,ugm-3
11-01-2020,14:00,81.12521,R,ugm-3
11-01-2020,15:00,81.92349,R,ugm-3
11-01-2020,16:00,81.02542,R,ugm-3
11-01-2020,17:00,81.77381,R,ugm-3
11-01-2020,18:00,82.92134,R,ugm-3
11-01-2020,19:00,81.67402,R,ugm-3
11-01-2020,20:00,82.87144,R,ugm-3
11-01-2020,21:00,84.21854,R,ugm-3
11-01-2020,22:00,85.56564,R,ugm-3
11-01-2020,23:00,85.41596,R,ugm-3
11-01-2020,24:00,86.66327,R,ugm-3
12-01-2020,01:00,87.94385,R,ugm-3
12-01-2020,02:00,84.08549,R,ugm-3
12-01-2020,03:00,83.27058,R,ugm-3
12-01-2020,04:00,84.31833,R,ugm-3
12-01-2020,05:00,85.61553,R,ugm-3
12-01-2020,06:00,83.52005,R,ugm-3
12-01-2020,07:00,81.62413,R,ugm-3
12-01-2020,08:00,81.97338,R,ugm-3
12-01-2020,09:00,83.66972,R,ugm-3
12-01-2020,10:00,83.86929,R,ugm-3
12-01-2020,11:00,86.26413,R,ugm-3
12-01-2020,12:00,86.06456,R,ugm-3
12-01-2020,13:00,86.26413,R,ugm-3
12-01-2020,14:00,86.06456,R,ugm-3
12-01-2020,15:00,85.06671,R,ugm-3
12-01-2020,16:00,85.26628,R,ugm-3
12-01-2020,17:00,85.16650,R,ugm-3
12-01-2020,18:00,84.51790,R,ugm-3
12-01-2020,19:00,84.91704,R,ugm-3
12-01-2020,20:00,86.36392,R,ugm-3
12-01-2020,21:00,85.71532,R,ugm-3
12-01-2020,22:00,85.21639,R,ugm-3
12-01-2020,23:00,83.42026,R,ugm-3
12-01-2020,24:00,83.52005,R,ugm-3
13-01-2020,01:00,81.42456,R,ugm-3
13-01-2020,02:00,83.22069,R,ugm-3
13-01-2020,03:00,83.42026,R,ugm-3
13-01-2020,04:00,83.02112,R,ugm-3
13-01-2020,05:00,80.17725,R,ugm-3
13-01-2020,06:00,77.08391,R,ugm-3
13-01-2020,07:00,74.78886,R,ugm-3
13-01-2020,08:00,74.28993,R,ugm-3
13-01-2020,09:00,74.09036,R,ugm-3
13-01-2020,10:00,73.99058,R,ugm-3
13-01-2020,11:00,73.64133,R,ugm-3
13-01-2020,12:00,73.14241,R,ugm-3
13-01-2020,13:00,76.63488,R,ugm-3
13-01-2020,14:00,77.58284,R,ugm-3
13-01-2020,15:00,77.03402,R,ugm-3
13-01-2020,16:00,78.18155,R,ugm-3
13-01-2020,17:00,80.07746,R,ugm-3
13-01-2020,18:00,81.02542,R,ugm-3
13-01-2020,19:00,78.13166,R,ugm-3
13-01-2020,20:00,77.43316,R,ugm-3
13-01-2020,21:00,77.73252,R,ugm-3
13-01-2020,22:00,75.08821,R,ugm-3
13-01-2020,23:00,76.68477,R,ugm-3
13-01-2020,24:00,76.48520,R,ugm-3
14-01-2020,01:00,75.70355,R,ugm-3
14-01-2020,02:00,75.63703,R,ugm-3
14-01-2020,03:00,76.58499,R,ugm-3
14-01-2020,04:00,76.53510,R,ugm-3
14-01-2020,05:00,77.88219,R,ugm-3
14-01-2020,06:00,80.42671,R,ugm-3
14-01-2020,07:00,85.11661,R,ugm-3
14-01-2020,08:00,88.20994,R,ugm-3
14-01-2020,09:00,86.91274,R,ugm-3
14-01-2020,10:00,85.16650,R,ugm-3
14-01-2020,11:00,84.96693,R,ugm-3
14-01-2020,12:00,82.02327,R,ugm-3
14-01-2020,13:00,79.97768,R,ugm-3
14-01-2020,14:00,78.73037,R,ugm-3
14-01-2020,15:00,78.83015,R,ugm-3
14-01-2020,16:00,78.58069,R,ugm-3
14-01-2020,17:00,77.53295,R,ugm-3
14-01-2020,18:00,77.63273,R,ugm-3
14-01-2020,19:00,75.18800,R,ugm-3
14-01-2020,20:00,74.83875,R,ugm-3
14-01-2020,21:00,72.49380,R,ugm-3
14-01-2020,22:00,71.69552,R,ugm-3
14-01-2020,23:00,78.23144,R,ugm-3
14-01-2020,24:00,79.57854,R,ugm-3
15-01-2020,01:00,80.29366,R,ugm-3
15-01-2020,02:00,80.02757,R,ugm-3
15-01-2020,03:00,82.47230,R,ugm-3
15-01-2020,04:00,82.52220,R,ugm-3
15-01-2020,05:00,82.67187,R,ugm-3
15-01-2020,06:00,81.47445,R,ugm-3
15-01-2020,07:00,82.12306,R,ugm-3
15-01-2020,08:00,83.61983,R,ugm-3
15-01-2020,09:00,81.67402,R,ugm-3
15-01-2020,10:00,82.82155,R,ugm-3
15-01-2020,11:00,82.37252,R,ugm-3
15-01-2020,12:00,81.57424,R,ugm-3
15-01-2020,13:00,81.72392,R,ugm-3
15-01-2020,14:00,78.78026,R,ugm-3
15-01-2020,15:00,77.03402,R,ugm-3
15-01-2020,16:00,75.93639,R,ugm-3
15-01-2020,17:00,76.03617,R,ugm-3
15-01-2020,18:00,79.37897,R,ugm-3
15-01-2020,19:00,80.87574,R,ugm-3
15-01-2020,20:00,81.87359,R,ugm-3
15-01-2020,21:00,81.82370,R,ugm-3
15-01-2020,22:00,80.97553,R,ugm-3
15-01-2020,23:00,81.77381,R,ugm-3
15-01-2020,24:00,89.95618,R,ugm-3
16-01-2020,01:00,85.94815,R,ugm-3
16-01-2020,02:00,80.29366,R,ugm-3
16-01-2020,03:00,81.32478,R,ugm-3
16-01-2020,04:00,82.02327,R,ugm-3
16-01-2020,05:00,82.17295,R,ugm-3
16-01-2020,06:00,82.57209,R,ugm-3
16-01-2020,07:00,82.62198,R,ugm-3
16-01-2020,08:00,82.82155,R,ugm-3
16-01-2020,09:00,81.62413,R,ugm-3
16-01-2020,10:00,76.03617,R,ugm-3
16-01-2020,11:00,76.03617,R,ugm-3
16-01-2020,12:00,70.54800,R,ugm-3
16-01-2020,13:00,68.80176,R,ugm-3
16-01-2020,14:00,66.90584,R,ugm-3
16-01-2020,15:00,67.15531,R,ugm-3
16-01-2020,16:00,67.35488,R,ugm-3
16-01-2020,17:00,68.20305,R,ugm-3
16-01-2020,18:00,68.55230,R,ugm-3
16-01-2020,19:00,71.84520,R,ugm-3
16-01-2020,20:00,72.04477,R,ugm-3
16-01-2020,21:00,74.33983,R,ugm-3
16-01-2020,22:00,72.49380,R,ugm-3
16-01-2020,23:00,64.06197,R,ugm-3
16-01-2020,24:00,58.97294,R,ugm-3
17-01-2020,01:00,57.87530,R,ugm-3
17-01-2020,02:00,74.17352,R,ugm-3
17-01-2020,03:00,79.82800,R,ugm-3
17-01-2020,04:00,75.58714,R,ugm-3
17-01-2020,05:00,76.33553,R,ugm-3
17-01-2020,06:00,78.03187,R,ugm-3
17-01-2020,07:00,79.27918,R,ugm-3
17-01-2020,08:00,79.27918,R,ugm-3
17-01-2020,09:00,80.37682,R,ugm-3
17-01-2020,10:00,81.17510,R,ugm-3
17-01-2020,11:00,81.02542,R,ugm-3
17-01-2020,12:00,80.52650,R,ugm-3
17-01-2020,13:00,79.27918,R,ugm-3
17-01-2020,14:00,77.43316,R,ugm-3
17-01-2020,15:00,76.98413,R,ugm-3
17-01-2020,16:00,79.82800,R,ugm-3
17-01-2020,17:00,80.42671,R,ugm-3
17-01-2020,18:00,82.17295,R,ugm-3
17-01-2020,19:00,82.22284,R,ugm-3
17-01-2020,20:00,81.52435,R,ugm-3
17-01-2020,21:00,79.82800,R,ugm-3
17-01-2020,22:00,78.63058,R,ugm-3
17-01-2020,23:00,78.88004,R,ugm-3
17-01-2020,24:00,80.42671,R,ugm-3
18-01-2020,01:00,80.02757,R,ugm-3
18-01-2020,02:00,82.48893,R,ugm-3
18-01-2020,03:00,81.77381,R,ugm-3
18-01-2020,04:00,80.62628,R,ugm-3
18-01-2020,05:00,79.82800,R,ugm-3
18-01-2020,06:00,79.27918,R,ugm-3
18-01-2020,07:00,79.32908,R,ugm-3
18-01-2020,08:00,79.67832,R,ugm-3
18-01-2020,09:00,79.47875,R,ugm-3
18-01-2020,10:00,79.37897,R,ugm-3
18-01-2020,11:00,78.33123,R,ugm-3
18-01-2020,12:00,76.83445,R,ugm-3
18-01-2020,13:00,77.08391,R,ugm-3
18-01-2020,14:00,77.28348,R,ugm-3
18-01-2020,15:00,77.93209,R,ugm-3
18-01-2020,16:00,78.88004,R,ugm-3
18-01-2020,17:00,80.07746,R,ugm-3
18-01-2020,18:00,80.72607,R,ugm-3
18-01-2020,19:00,82.92134,R,ugm-3
18-01-2020,20:00,83.07101,R,ugm-3
18-01-2020,21:00,80.62628,R,ugm-3
18-01-2020,22:00,79.42886,R,ugm-3
18-01-2020,23:00,79.52865,R,ugm-3
18-01-2020,24:00,78.78026,R,ugm-3
19-01-2020,01:00,78.83015,R,ugm-3
19-01-2020,02:00,77.83230,R,ugm-3
19-01-2020,03:00,78.97983,R,ugm-3
19-01-2020,04:00,78.68047,R,ugm-3
19-01-2020,05:00,78.18155,R,ugm-3
19-01-2020,06:00,78.63058,R,ugm-3
19-01-2020,07:00,78.23144,R,ugm-3
19-01-2020,08:00,78.38112,R,ugm-3
19-01-2020,09:00,79.17940,R,ugm-3
19-01-2020,10:00,79.17940,R,ugm-3
19-01-2020,11:00,79.17940,R,ugm-3
19-01-2020,12:00,79.52865,R,ugm-3
19-01-2020,13:00,74.14026,R,ugm-3
19-01-2020,14:00,74.38972,R,ugm-3
19-01-2020,15:00,72.19445,R,ugm-3
19-01-2020,16:00,72.79316,R,ugm-3
19-01-2020,17:00,74.09036,R,ugm-3
19-01-2020,18:00,75.88649,R,ugm-3
19-01-2020,19:00,77.28348,R,ugm-3
19-01-2020,20:00,77.88219,R,ugm-3
19-01-2020,21:00,79.37897,R,ugm-3
19-01-2020,22:00,80.47660,R,ugm-3
19-01-2020,23:00,81.37467,R,ugm-3
19-01-2020,24:00,82.72177,R,ugm-3
20-01-2020,01:00,83.35374,R,ugm-3
20-01-2020,02:00,82.88807,R,ugm-3
20-01-2020,03:00,83.52005,R,ugm-3
20-01-2020,04:00,83.07101,R,ugm-3
20-01-2020,05:00,82.82155,R,ugm-3
20-01-2020,06:00,82.32263,R,ugm-3
20-01-2020,07:00,82.12306,R,ugm-3
20-01-2020,08:00,81.97338,R,ugm-3
20-01-2020,09:00,81.42456,R,ugm-3
20-01-2020,10:00,83.61983,R,ugm-3
20-01-2020,11:00,85.46585,R,ugm-3
20-01-2020,12:00,84.66757,R,ugm-3
20-01-2020,13:00,84.71747,R,ugm-3
20-01-2020,14:00,84.41811,R,ugm-3
20-01-2020,15:00,83.17080,R,ugm-3
20-01-2020,16:00,82.57209,R,ugm-3
20-01-2020,17:00,81.92349,R,ugm-3
20-01-2020,18:00,81.27488,R,ugm-3
20-01-2020,19:00,82.07316,R,ugm-3
20-01-2020,20:00,82.42241,R,ugm-3
20-01-2020,21:00,82.97123,R,ugm-3
20-01-2020,22:00,82.17295,R,ugm-3
20-01-2020,23:00,82.87144,R,ugm-3
20-01-2020,24:00,84.41811,R,ugm-3
21-01-2020,01:00,83.55331,R,ugm-3
21-01-2020,02:00,78.43101,R,ugm-3
21-01-2020,03:00,78.58069,R,ugm-3
21-01-2020,04:00,80.87574,R,ugm-3
21-01-2020,05:00,82.67187,R,ugm-3
21-01-2020,06:00,82.27273,R,ugm-3
21-01-2020,07:00,83.86929,R,ugm-3
21-01-2020,08:00,85.61553,R,ugm-3
21-01-2020,09:00,85.86499,R,ugm-3
21-01-2020,10:00,85.81510,R,ugm-3
21-01-2020,11:00,86.06456,R,ugm-3
21-01-2020,12:00,85.26628,R,ugm-3
21-01-2020,13:00,86.11446,R,ugm-3
21-01-2020,14:00,86.01467,R,ugm-3
21-01-2020,15:00,84.06886,R,ugm-3
21-01-2020,16:00,82.22284,R,ugm-3
21-01-2020,17:00,,,
21-01-2020,18:00,,,
21-01-2020,19:00,,,
21-01-2020,20:00,,,
21-01-2020,21:00,,,
21-01-2020,22:00,,,
21-01-2020,23:00,,,
21-01-2020,24:00,,,
22-01-2020,01:00,,,
22-01-2020,02:00,,,
22-01-2020,03:00,,,
22-01-2020,04:00,,,
22-01-2020,05:00,,,
22-01-2020,06:00,,,
22-01-2020,07:00,,,
22-01-2020,08:00,,,
22-01-2020,09:00,,,
22-01-2020,10:00,,,
22-01-2020,11:00,,,
22-01-2020,12:00,,,
22-01-2020,13:00,,,
22-01-2020,14:00,,,
22-01-2020,15:00,,,
22-01-2020,16:00,,,
22-01-2020,17:00,,,
22-01-2020,18:00,,,
22-01-2020,19:00,,,
22-01-2020,20:00,,,
22-01-2020,21:00,,,
22-01-2020,22:00,,,
22-01-2020,23:00,,,
22-01-2020,24:00,,,
23-01-2020,01:00,,,
23-01-2020,02:00,,,
23-01-2020,03:00,,,
23-01-2020,04:00,,,
23-01-2020,05:00,,,
23-01-2020,06:00,,,
23-01-2020,07:00,,,
23-01-2020,08:00,,,
23-01-2020,09:00,,,
23-01-2020,10:00,,,
23-01-2020,11:00,,,
23-01-2020,12:00,,,
23-01-2020,13:00,,,
23-01-2020,14:00,,,
23-01-2020,15:00,,,
23-01-2020,16:00,,,
23-01-2020,17:00,,,
23-01-2020,18:00,,,
23-01-2020,19:00,,,
23-01-2020,20:00,,,
23-01-2020,21:00,,,
23-01-2020,22:00,,,
23-01-2020,23:00,,,
23-01-2020,24:00,,,
24-01-2020,01:00,,,
24-01-2020,02:00,,,
24-01-2020,03:00,,,
24-01-2020,04:00,,,
24-01-2020,05:00,,,
24-01-2020,06:00,,,
24-01-2020,07:00,,,
24-01-2020,08:00,,,
24-01-2020,09:00,,,
24-01-2020,10:00,,,
24-01-2020,11:00,,,
24-01-2020,12:00,,,
24-01-2020,13:00,,,
24-01-2020,14:00,,,
24-01-2020,15:00,,,
24-01-2020,16:00,,,
24-01-2020,17:00,,,
24-01-2020,18:00,,,
24-01-2020,19:00,,,
24-01-2020,20:00,,,
24-01-2020,21:00,,,
24-01-2020,22:00,,,
24-01-2020,23:00,,,
24-01-2020,24:00,,,
25-01-2020,01:00,,,
25-01-2020,02:00,,,
25-01-2020,03:00,,,
25-01-2020,04:00,,,
25-01-2020,05:00,,,
25-01-2020,06:00,,,
25-01-2020,07:00,,,
25-01-2020,08:00,,,
25-01-2020,09:00,,,
25-01-2020,10:00,,,
25-01-2020,11:00,,,
25-01-2020,12:00,,,
25-01-2020,13:00,,,
25-01-2020,14:00,,,
25-01-2020,15:00,,,
25-01-2020,16:00,,,
25-01-2020,17:00,,,
25-01-2020,18:00,,,
25-01-2020,19:00,,,
25-01-2020,20:00,,,
25-01-2020,21:00,,,
25-01-2020,22:00,,,
25-01-2020,23:00,,,
25-01-2020,24:00,,,
26-01-2020,01:00,,,
26-01-2020,02:00,,,
26-01-2020,03:00,,,
26-01-2020,04:00,,,
26-01-2020,05:00,,,
26-01-2020,06:00,,,
26-01-2020,07:00,,,
26-01-2020,08:00,,,
26-01-2020,09:00,,,
26-01-2020,10:00,,,
26-01-2020,11:00,,,
26-01-2020,12:00,,,
26-01-2020,13:00,,,
26-01-2020,14:00,,,
26-01-2020,15:00,,,
26-01-2020,16:00,,,
26-01-2020,17:00,,,
26-01-2020,18:00,,,
26-01-2020,19:00,,,
26-01-2020,20:00,,,
26-01-2020,21:00,,,
26-01-2020,22:00,,,
26-01-2020,23:00,,,
26-01-2020,24:00,,,
27-01-2020,01:00,,,
27-01-2020,02:00,,,
27-01-2020,03:00,,,
27-01-2020,04:00,,,
27-01-2020,05:00,,,
27-01-2020,06:00,,,
27-01-2020,07:00,,,
27-01-2020,08:00,,,
27-01-2020,09:00,,,
27-01-2020,10:00,,,
27-01-2020,11:00,,,
27-01-2020,12:00,,,
27-01-2020,13:00,,,
27-01-2020,14:00,,,
27-01-2020,15:00,,,
27-01-2020,16:00,,,
27-01-2020,17:00,,,
27-01-2020,18:00,,,
27-01-2020,19:00,,,
27-01-2020,20:00,,,
27-01-2020,21:00,,,
27-01-2020,22:00,,,
27-01-2020,23:00,,,
27-01-2020,24:00,,,
28-01-2020,01:00,,,
28-01-2020,02:00,,,
28-01-2020,03:00,,,
28-01-2020,04:00,,,
28-01-2020,05:00,,,
28-01-2020,06:00,,,
28-01-2020,07:00,,,
28-01-2020,08:00,,,
28-01-2020,09:00,,,
28-01-2020,10:00,,,
28-01-2020,11:00,,,
28-01-2020,12:00,,,
28-01-2020,13:00,,,
28-01-2020,14:00,,,
28-01-2020,15:00,,,
28-01-2020,16:00,,,
28-01-2020,17:00,,,
28-01-2020,18:00,,,
28-01-2020,19:00,,,
28-01-2020,20:00,,,
28-01-2020,21:00,,,
28-01-2020,22:00,,,
28-01-2020,23:00,,,
28-01-2020,24:00,,,
29-01-2020,01:00,,,
29-01-2020,02:00,,,
29-01-2020,03:00,,,
29-01-2020,04:00,,,
29-01-2020,05:00,,,
29-01-2020,06:00,,,
29-01-2020,07:00,,,
29-01-2020,08:00,,,
29-01-2020,09:00,,,
29-01-2020,10:00,,,
29-01-2020,11:00,,,
29-01-2020,12:00,,,
29-01-2020,13:00,,,
29-01-2020,14:00,,,
29-01-2020,15:00,,,
29-01-2020,16:00,,,
29-01-2020,17:00,,,
29-01-2020,18:00,,,
29-01-2020,19:00,,,
29-01-2020,20:00,,,
29-01-2020,21:00,,,
29-01-2020,22:00,,,
29-01-2020,23:00,,,
29-01-2020,24:00,,,
30-01-2020,01:00,,,
30-01-2020,02:00,,,
30-01-2020,03:00,,,
30-01-2020,04:00,,,
30-01-2020,05:00,,,
30-01-2020,06:00,,,
30-01-2020,07:00,,,
30-01-2020,08:00,,,
30-01-2020,09:00,,,
30-01-2020,10:00,,,
30-01-2020,11:00,,,
30-01-2020,12:00,,,
30-01-2020,13:00,,,
30-01-2020,14:00,,,
30-01-2020,15:00,,,
30-01-2020,16:00,,,
30-01-2020,17:00,,,
30-01-2020,18:00,,,
30-01-2020,19:00,,,
30-01-2020,20:00,,,
30-01-2020,21:00,,,
30-01-2020,22:00,,,
30-01-2020,23:00,,,
30-01-2020,24:00,,,
31-01-2020,01:00,,,
31-01-2020,02:00,,,
31-01-2020,03:00,,,
31-01-2020,04:00,,,
31-01-2020,05:00,,,
31-01-2020,06:00,,,
31-01-2020,07:00,,,
31-01-2020,08:00,,,
31-01-2020,09:00,,,
31-01-2020,10:00,,,
31-01-2020,11:00,,,
31-01-2020,12:00,,,
31-01-2020,13:00,,,
31-01-2020,14:00,,,
31-01-2020,15:00,,,
31-01-2020,16:00,,,
31-01-2020,17:00,,,
31-01-2020,18:00,,,
31-01-2020,19:00,,,
31-01-2020,20:00,,,
31-01-2020,21:00,,,
31-01-2020,22:00,,,
31-01-2020,23:00,,,
31-01-2020,24:00,,,
01-02-2020,01:00,,,
01-02-2020,02:00,68.45251,R,ugm-3
01-02-2020,03:00,81.57424,R,ugm-3
01-02-2020,04:00,83.56994,R,ugm-3
01-02-2020,05:00,46.00089,R,ugm-3
01-02-2020,06:00,47.69723,R,ugm-3
01-02-2020,07:00,42.35873,R,ugm-3
01-02-2020,08:00,72.14456,R,ugm-3
01-02-2020,09:00,79.47875,R,ugm-3
01-02-2020,10:00,77.08391,R,ugm-3
01-02-2020,11:00,77.78241,R,ugm-3
01-02-2020,12:00,78.08176,R,ugm-3
01-02-2020,13:00,76.63488,R,ugm-3
01-02-2020,14:00,68.80176,R,ugm-3
01-02-2020,15:00,62.41552,R,ugm-3
01-02-2020,16:00,60.36993,R,ugm-3
01-02-2020,17:00,59.57165,R,ugm-3
01-02-2020,18:00,69.20090,R,ugm-3
01-02-2020,19:00,72.14456,R,ugm-3
01-02-2020,20:00,76.68477,R,ugm-3
01-02-2020,21:00,79.77811,R,ugm-3
01-02-2020,22:00,78.83015,R,ugm-3
01-02-2020,23:00,80.07746,R,ugm-3
01-02-2020,24:00,77.63273,R,ugm-3
02-02-2020,01:00,76.90097,R,ugm-3
02-02-2020,02:00,76.36879,R,ugm-3
02-02-2020,03:00,74.83875,R,ugm-3
02-02-2020,04:00,74.43961,R,ugm-3
02-02-2020,05:00,71.64563,R,ugm-3
02-02-2020,06:00,67.50455,R,ugm-3
02-02-2020,07:00,70.79746,R,ugm-3
02-02-2020,08:00,68.75187,R,ugm-3
02-02-2020,09:00,71.94499,R,ugm-3
02-02-2020,10:00,57.52605,R,ugm-3
02-02-2020,11:00,46.40003,R,ugm-3
02-02-2020,12:00,57.52605,R,ugm-3
02-02-2020,13:00,60.12046,R,ugm-3
02-02-2020,14:00,56.97724,R,ugm-3
02-02-2020,15:00,46.44992,R,ugm-3
02-02-2020,16:00,34.32604,R,ugm-3
02-02-2020,17:00,45.90110,R,ugm-3
02-02-2020,18:00,48.99444,R,ugm-3
02-02-2020,19:00,70.79746,R,ugm-3
02-02-2020,20:00,73.59144,R,ugm-3
02-02-2020,21:00,76.13596,R,ugm-3
02-02-2020,22:00,76.88434,R,ugm-3
02-02-2020,23:00,78.08176,R,ugm-3
02-02-2020,24:00,79.67832,R,ugm-3
03-02-2020,01:00,80.49323,R,ugm-3
03-02-2020,02:00,82.88807,R,ugm-3
03-02-2020,03:00,83.07101,R,ugm-3
03-02-2020,04:00,82.92134,R,ugm-3
03-02-2020,05:00,82.52220,R,ugm-3
03-02-2020,06:00,81.67402,R,ugm-3
03-02-2020,07:00,80.02757,R,ugm-3
03-02-2020,08:00,75.58714,R,ugm-3
03-02-2020,09:00,65.05982,R,ugm-3
03-02-2020,10:00,72.89294,R,ugm-3
03-02-2020,11:00,75.63703,R,ugm-3